Schneifelwetter: Wetterstation Hallschlag, 537 m . NN
Wetterdaten: Sonntag, 25.11.2012
Datum Zeit Temp. A. Feuchte A. Luftdruck Regen Wind Richtung Richtung Sonnenschein T Regen Taupunkt Windchill
25.11.2012 00:01 7,7 C 97 % 1008 hPa 0,0 l/m 23,9 km/h (4 Bft) S22.5 180 0 min 0 min 7,3 C -1,0 C
25.11.2012 00:16 7,8 C 96 % 1008 hPa 0,0 l/m 31,3 km/h (5 Bft) S22.5 175 0 min 0 min 7,2 C -2,7 C
25.11.2012 00:31 7,8 C 96 % 1008 hPa 0,0 l/m 22,8 km/h (4 Bft) S22.5 170 0 min 0 min 7,2 C -0,5 C
25.11.2012 00:46 7,8 C 96 % 1008 hPa 0,0 l/m 26,3 km/h (4 Bft) S45 170 0 min 0 min 7,2 C -1,5 C
25.11.2012 01:01 7,7 C 96 % 1008 hPa 0,0 l/m 25,4 km/h (4 Bft) S-SO22.5 165 0 min 0 min 7,1 C -1,4 C
25.11.2012 01:15 7,8 C 96 % 1007 hPa 0,0 l/m 22,6 km/h (4 Bft) S45 180 0 min 0 min 7,2 C -0,4 C
25.11.2012 01:30 8,0 C 95 % 1007 hPa 0,0 l/m 25,6 km/h (4 Bft) S45 190 0 min 0 min 7,2 C -1,0 C
25.11.2012 01:45 8,1 C 95 % 1007 hPa 0,0 l/m 26,3 km/h (4 Bft) S45 175 0 min 0 min 7,3 C -1,1 C
25.11.2012 02:00 8,2 C 94 % 1007 hPa 0,0 l/m 26,3 km/h (4 Bft) S45 175 0 min 0 min 7,3 C -1,0 C
25.11.2012 02:15 8,4 C 94 % 1007 hPa 0,0 l/m 22,5 km/h (4 Bft) S22.5 180 0 min 0 min 7,5 C 0,4 C
25.11.2012 02:30 8,4 C 94 % 1007 hPa 0,0 l/m 26,6 km/h (4 Bft) S45 180 0 min 0 min 7,5 C -0,8 C
25.11.2012 02:45 8,4 C 94 % 1007 hPa 0,0 l/m 24,6 km/h (4 Bft) S45 180 0 min 0 min 7,5 C -0,2 C
25.11.2012 03:00 8,6 C 94 % 1006 hPa 0,0 l/m 25,0 km/h (4 Bft) S45 190 0 min 0 min 7,7 C -0,1 C
25.11.2012 03:15 8,8 C 93 % 1006 hPa 0,0 l/m 32,1 km/h (5 Bft) S45 185 0 min 0 min 7,7 C -1,5 C
25.11.2012 03:30 9,0 C 92 % 1006 hPa 0,0 l/m 37,8 km/h (5 Bft) S45 190 0 min 0 min 7,8 C -2,2 C
25.11.2012 03:45 9,2 C 90 % 1006 hPa 0,0 l/m 46,6 km/h (6 Bft) S45 190 0 min 0 min 7,6 C -3,2 C
25.11.2012 04:00 9,4 C 90 % 1005 hPa 0,0 l/m 37,8 km/h (5 Bft) S-SW67.5 205 0 min 0 min 7,8 C -1,7 C
25.11.2012 04:15 9,5 C 89 % 1005 hPa 0,0 l/m 44,0 km/h (6 Bft) SW45 225 0 min 0 min 7,8 C -2,4 C
25.11.2012 04:30 9,5 C 89 % 1005 hPa 0,0 l/m 35,3 km/h (5 Bft) SW45 225 0 min 0 min 7,8 C -1,1 C
25.11.2012 04:45 9,4 C 89 % 1006 hPa 0,0 l/m 36,1 km/h (5 Bft) W-SW22.5 255 0 min 0 min 7,7 C -1,4 C
25.11.2012 05:00 9,5 C 86 % 1006 hPa 0,0 l/m 54,5 km/h (7 Bft) W-SW22.5 250 0 min 0 min 7,3 C -3,5 C
25.11.2012 05:15 9,5 C 85 % 1006 hPa 0,0 l/m 52,6 km/h (7 Bft) W-SW45 240 0 min 0 min 7,1 C -3,3 C
25.11.2012 05:30 9,4 C 84 % 1006 hPa 0,3 l/m 42,7 km/h (6 Bft) W-SW45 245 0 min 15 min 6,8 C -2,4 C
25.11.2012 05:45 9,4 C 83 % 1006 hPa 0,0 l/m 46,1 km/h (6 Bft) SW67.5 235 0 min 0 min 6,7 C -2,8 C
25.11.2012 06:00 9,3 C 82 % 1006 hPa 0,0 l/m 41,9 km/h (6 Bft) W-SW67.5 250 0 min 0 min 6,4 C -2,4 C
25.11.2012 06:15 9,1 C 82 % 1007 hPa 0,0 l/m 35,6 km/h (5 Bft) SW45 225 0 min 0 min 6,2 C -1,7 C
25.11.2012 06:30 9,0 C 82 % 1006 hPa 0,0 l/m 42,7 km/h (6 Bft) W-SW45 240 0 min 0 min 6,1 C -3,0 C
25.11.2012 06:45 9,0 C 81 % 1006 hPa 0,0 l/m 45,2 km/h (6 Bft) W-SW67.5 245 0 min 0 min 5,9 C -3,3 C
25.11.2012 07:00 8,9 C 82 % 1006 hPa 0,0 l/m 49,7 km/h (6 Bft) W-SW45 255 0 min 0 min 6,0 C -4,0 C
25.11.2012 07:15 8,8 C 81 % 1007 hPa 0,0 l/m 46,4 km/h (6 Bft) W-SW45 250 0 min 0 min 5,7 C -3,8 C
25.11.2012 07:30 8,6 C 81 % 1007 hPa 0,0 l/m 44,7 km/h (6 Bft) W-SW45 250 0 min 0 min 5,5 C -3,8 C
25.11.2012 07:45 8,6 C 80 % 1007 hPa 0,0 l/m 50,6 km/h (7 Bft) W-SW45 250 0 min 0 min 5,3 C -4,5 C
25.11.2012 08:00 8,5 C 81 % 1007 hPa 0,0 l/m 42,6 km/h (6 Bft) W67.5 260 0 min 0 min 5,4 C -3,7 C
25.11.2012 08:15 8,4 C 82 % 1007 hPa 0,0 l/m 47,0 km/h (6 Bft) SW45 235 0 min 0 min 5,5 C -4,4 C
25.11.2012 08:30 8,3 C 82 % 1007 hPa 0,0 l/m 44,4 km/h (6 Bft) W-SW45 245 0 min 0 min 5,4 C -4,3 C
25.11.2012 08:45 8,3 C 83 % 1007 hPa 0,0 l/m 55,5 km/h (7 Bft) W-SW67.5 255 0 min 0 min 5,6 C -5,4 C
25.11.2012 09:00 8,0 C 86 % 1008 hPa 0,0 l/m 47,5 km/h (6 Bft) SW67.5 230 0 min 0 min 5,8 C -5,1 C
25.11.2012 09:15 7,6 C 85 % 1008 hPa 0,0 l/m 54,9 km/h (7 Bft) W-SW67.5 255 0 min 0 min 5,2 C -6,5 C
25.11.2012 09:30 7,6 C 85 % 1008 hPa 0,0 l/m 54,3 km/h (7 Bft) W-SW45 240 0 min 0 min 5,2 C -6,4 C
25.11.2012 09:45 7,6 C 84 % 1008 hPa 0,0 l/m 46,3 km/h (6 Bft) W-SW45 250 0 min 0 min 5,1 C -5,6 C
25.11.2012 10:00 7,6 C 84 % 1008 hPa 0,0 l/m 53,2 km/h (7 Bft) W-SW45 245 0 min 0 min 5,1 C -6,3 C
25.11.2012 10:16 7,6 C 84 % 1009 hPa 0,0 l/m 45,3 km/h (6 Bft) SW67.5 230 0 min 0 min 5,1 C -5,4 C
25.11.2012 10:30 7,5 C 86 % 1009 hPa 0,0 l/m 40,3 km/h (6 Bft) W67.5 260 0 min 0 min 5,3 C -4,9 C
25.11.2012 10:45 6,9 C 87 % 1010 hPa 0,0 l/m 45,5 km/h (6 Bft) W45 265 0 min 0 min 4,9 C -6,5 C
25.11.2012 11:00 6,4 C 88 % 1010 hPa 0,3 l/m 43,8 km/h (6 Bft) W45 260 0 min 15 min 4,6 C -7,0 C
25.11.2012 11:16 6,4 C 88 % 1010 hPa 0,0 l/m 45,3 km/h (6 Bft) W67.5 270 0 min 0 min 4,6 C -7,3 C
25.11.2012 11:31 6,4 C 88 % 1010 hPa 0,0 l/m 47,6 km/h (6 Bft) W-SW45 250 0 min 0 min 4,6 C -7,6 C
25.11.2012 11:46 6,2 C 88 % 1010 hPa 0,0 l/m 44,9 km/h (6 Bft) W22.5 260 0 min 0 min 4,4 C -7,5 C
25.11.2012 12:00 6,1 C 86 % 1010 hPa 0,0 l/m 51,6 km/h (7 Bft) W45 260 0 min 0 min 3,9 C -8,5 C
25.11.2012 12:15 6,3 C 86 % 1010 hPa 0,0 l/m 47,5 km/h (6 Bft) W67.5 265 0 min 0 min 4,1 C -7,7 C
25.11.2012 12:30 6,2 C 83 % 1010 hPa 0,0 l/m 55,3 km/h (7 Bft) W45 265 0 min 0 min 3,5 C -8,7 C
25.11.2012 12:46 6,3 C 82 % 1011 hPa 0,0 l/m 50,3 km/h (7 Bft) W45 260 0 min 0 min 3,5 C -8,0 C
25.11.2012 13:01 6,4 C 81 % 1011 hPa 0,0 l/m 54,2 km/h (7 Bft) W22.5 260 0 min 0 min 3,4 C -8,3 C
25.11.2012 13:15 6,6 C 81 % 1011 hPa 0,0 l/m 43,2 km/h (6 Bft) W45 260 0 min 0 min 3,6 C -6,7 C
25.11.2012 13:30 6,7 C 79 % 1011 hPa 0,0 l/m 46,5 km/h (6 Bft) W45 260 0 min 0 min 3,3 C -7,0 C
25.11.2012 13:45 6,3 C 79 % 1011 hPa 0,0 l/m 49,1 km/h (6 Bft) W22.5 265 0 min 0 min 2,9 C -7,9 C
25.11.2012 14:00 6,2 C 80 % 1011 hPa 0,0 l/m 40,7 km/h (6 Bft) W45 260 0 min 0 min 3,0 C -6,9 C
25.11.2012 14:16 6,2 C 80 % 1011 hPa 0,0 l/m 38,3 km/h (5 Bft) W-SW45 255 0 min 0 min 3,0 C -6,4 C
25.11.2012 14:31 6,4 C 80 % 1010 hPa 0,0 l/m 40,8 km/h (6 Bft) W-SW45 250 0 min 0 min 3,2 C -6,6 C
25.11.2012 14:45 6,2 C 79 % 1011 hPa 0,0 l/m 36,2 km/h (5 Bft) W22.5 260 0 min 0 min 2,8 C -6,1 C
25.11.2012 15:00 6,2 C 79 % 1011 hPa 0,0 l/m 39,2 km/h (6 Bft) W-SW67.5 250 0 min 0 min 2,8 C -6,6 C
25.11.2012 15:15 5,8 C 80 % 1011 hPa 0,0 l/m 39,4 km/h (6 Bft) W-SW45 250 0 min 0 min 2,6 C -7,2 C
25.11.2012 15:31 5,6 C 81 % 1011 hPa 0,0 l/m 37,3 km/h (5 Bft) W-SW67.5 250 0 min 0 min 2,6 C -7,1 C
25.11.2012 15:46 5,4 C 81 % 1011 hPa 0,0 l/m 42,7 km/h (6 Bft) W-SW67.5 240 0 min 0 min 2,4 C -8,4 C
25.11.2012 16:01 5,5 C 81 % 1011 hPa 0,0 l/m 41,7 km/h (6 Bft) W-SW45 250 0 min 0 min 2,5 C -8,1 C
25.11.2012 16:15 5,2 C 82 % 1011 hPa 0,0 l/m 36,4 km/h (5 Bft) W-SW67.5 255 0 min 0 min 2,4 C -7,5 C
25.11.2012 16:30 5,1 C 83 % 1011 hPa 0,0 l/m 30,6 km/h (5 Bft) SW45 230 0 min 0 min 2,5 C -6,4 C
25.11.2012 16:45 4,8 C 83 % 1011 hPa 0,0 l/m 35,3 km/h (5 Bft) W67.5 260 0 min 0 min 2,2 C -7,9 C
25.11.2012 17:01 4,7 C 84 % 1011 hPa 0,0 l/m 37,9 km/h (5 Bft) W-SW45 255 0 min 0 min 2,2 C -8,6 C
25.11.2012 17:16 4,4 C 84 % 1011 hPa 0,0 l/m 37,9 km/h (5 Bft) W-SW45 255 0 min 0 min 1,9 C -9,0 C
25.11.2012 17:31 4,2 C 85 % 1012 hPa 0,0 l/m 31,8 km/h (5 Bft) W45 260 0 min 0 min 1,9 C -8,0 C
25.11.2012 17:45 3,9 C 85 % 1012 hPa 0,0 l/m 23,7 km/h (4 Bft) SW45 235 0 min 0 min 1,6 C -6,0 C
25.11.2012 18:00 3,6 C 86 % 1012 hPa 0,0 l/m 21,0 km/h (4 Bft) SW45 225 0 min 0 min 1,5 C -5,4 C
25.11.2012 18:15 3,5 C 87 % 1012 hPa 0,0 l/m 25,0 km/h (4 Bft) SW45 230 0 min 0 min 1,5 C -7,0 C
25.11.2012 18:31 3,5 C 88 % 1012 hPa 0,0 l/m 30,5 km/h (5 Bft) SW45 225 0 min 0 min 1,7 C -8,6 C
25.11.2012 18:46 3,4 C 89 % 1011 hPa 0,0 l/m 32,0 km/h (5 Bft) W-SW22.5 245 0 min 0 min 1,8 C -9,2 C
25.11.2012 19:01 3,5 C 90 % 1011 hPa 0,0 l/m 34,6 km/h (5 Bft) SW45 225 0 min 0 min 2,0 C -9,6 C
25.11.2012 19:15 3,5 C 90 % 1012 hPa 0,0 l/m 29,9 km/h (5 Bft) SW45 225 0 min 0 min 2,0 C -8,5 C
25.11.2012 19:30 3,2 C 90 % 1012 hPa 0,0 l/m 24,4 km/h (4 Bft) S-SW45 210 0 min 0 min 1,7 C -7,2 C
25.11.2012 19:45 3,3 C 91 % 1012 hPa 0,0 l/m 26,0 km/h (4 Bft) SW45 215 0 min 0 min 2,0 C -7,6 C
25.11.2012 20:01 3,5 C 92 % 1012 hPa 0,0 l/m 30,0 km/h (5 Bft) S-SW45 205 0 min 0 min 2,3 C -8,5 C
25.11.2012 20:16 3,8 C 92 % 1012 hPa 0,0 l/m 26,4 km/h (4 Bft) S-SW45 205 0 min 0 min 2,6 C -7,0 C
25.11.2012 20:31 3,9 C 92 % 1012 hPa 0,0 l/m 28,8 km/h (4 Bft) SW22.5 230 0 min 0 min 2,7 C -7,6 C
25.11.2012 20:45 3,8 C 91 % 1011 hPa 0,0 l/m 27,5 km/h (4 Bft) SW45 220 0 min 0 min 2,5 C -7,4 C
25.11.2012 21:00 3,6 C 92 % 1011 hPa 0,0 l/m 35,4 km/h (5 Bft) S-SW45 210 0 min 0 min 2,4 C -9,7 C
25.11.2012 21:15 3,5 C 92 % 1011 hPa 0,0 l/m 25,4 km/h (4 Bft) S-SW45 205 0 min 0 min 2,3 C -7,1 C
25.11.2012 21:31 3,3 C 93 % 1012 hPa 0,0 l/m 25,4 km/h (4 Bft) S-SW45 205 0 min 0 min 2,3 C -7,4 C
25.11.2012 21:46 3,3 C 93 % 1011 hPa 0,0 l/m 23,3 km/h (4 Bft) S-SW67.5 195 0 min 0 min 2,3 C -6,7 C
25.11.2012 22:00 3,3 C 93 % 1011 hPa 0,0 l/m 25,8 km/h (4 Bft) S-SW45 200 0 min 0 min 2,3 C -7,5 C
25.11.2012 22:15 3,2 C 93 % 1011 hPa 0,0 l/m 22,7 km/h (4 Bft) S-SW45 200 0 min 0 min 2,2 C -6,6 C
25.11.2012 22:30 3,2 C 94 % 1011 hPa 0,0 l/m 20,5 km/h (4 Bft) S-SW45 210 0 min 0 min 2,3 C -5,7 C
25.11.2012 22:45 3,3 C 94 % 1011 hPa 0,0 l/m 29,7 km/h (5 Bft) S-SW67.5 200 0 min 0 min 2,4 C -8,7 C
25.11.2012 23:01 3,4 C 94 % 1011 hPa 0,0 l/m 31,9 km/h (5 Bft) S-SW45 205 0 min 0 min 2,5 C -9,1 C
25.11.2012 23:16 3,3 C 94 % 1011 hPa 0,0 l/m 26,6 km/h (4 Bft) S-SW45 205 0 min 0 min 2,4 C -7,8 C
25.11.2012 23:30 3,3 C 94 % 1011 hPa 0,0 l/m 24,0 km/h (4 Bft) S-SW45 200 0 min 0 min 2,4 C -6,9 C
25.11.2012 23:45 3,1 C 94 % 1011 hPa 0,0 l/m 19,6 km/h (3 Bft) S45 190 0 min 0 min 2,2 C -5,5 C
25.11.2012 23:54 3,0 C 94 % 1011 hPa 0,0 l/m 21,5 km/h (4 Bft) S-SW45 195 0 min 0 min 2,1 C -6,4 C
_ Min-Zeit 23:54 13:30 04:00 - 23:45 - - - - 18:00 21:00
Minimum _ 3,0 C 79 % 1005 hPa - 19,6 km/h (3 Bft) - - - - 1,5 C -9,7 C
_ Max-Zeit 04:15 00:01 17:31 05:30 08:45 - - 00:01 05:30 04:00 02:15
Maximum _ 9,5 C 97 % 1012 hPa 0,3 l/m 55,5 km/h
W-SW (7 Bft)
- - 0 min 15 min 7,8 C 0,4 C
Durchschnitt _ 6,4 C 87 % 1009 hPa #0,6 l/m 37,0 km/h (5 Bft) W-SW - #0 min. #30 min. 4,4 C -5,5 C